Time,TemperatureF,DewpointF,PressureIn,WindDirection,WindDirectionDegrees,WindSpeedMPH,WindSpeedGustMPH,Humidity,HourlyPrecipIn,Conditions,Clouds,dailyrainin,SolarRadiationWatts/m^2,SoftwareType,DateUTC
2013-11-15 00:03:00,54.0,54.0,-100.00,SW,219,0.0,0.0,99,0.00,,,0.00,0.000000,,2013-11-15 05:03:00,
2013-11-15 00:13:00,54.0,54.0,-100.00,SW,219,0.0,0.0,99,0.00,,,0.00,0.000000,,2013-11-15 05:13:00,
2013-11-15 00:44:00,54.0,54.0,-100.00,SW,218,0.0,0.0,100,0.00,,,0.00,0.000000,,2013-11-15 05:44:00,
2013-11-15 00:53:00,54.0,54.0,-100.00,SW,218,0.0,0.0,100,0.00,,,0.00,0.000000,,2013-11-15 05:53:00,
2013-11-15 01:02:00,54.0,54.0,-100.00,SW,218,0.0,0.0,100,0.00,,,0.00,0.000000,,2013-11-15 06:02:00,
2013-11-15 01:12:00,54.0,54.0,-100.00,SW,218,0.0,0.0,100,0.00,,,0.00,0.000000,,2013-11-15 06:12:00,
2013-11-15 01:44:00,54.0,54.0,-100.00,SW,228,0.0,0.0,100,0.00,,,0.00,0.000000,,2013-11-15 06:44:00,
2013-11-15 01:53:00,54.0,54.0,-100.00,SW,228,0.0,0.0,100,0.00,,,0.00,0.000000,,2013-11-15 06:53:00,
2013-11-15 02:02:00,54.0,54.0,-100.00,SW,228,0.0,0.0,100,0.00,,,0.00,0.000000,,2013-11-15 07:02:00,
2013-11-15 02:12:00,54.0,54.0,-100.00,SW,228,0.0,0.0,100,0.00,,,0.00,0.000000,,2013-11-15 07:12:00,
2013-11-15 02:42:00,53.0,53.0,-100.00,ESE,113,0.0,0.0,100,0.00,,,0.00,0.000000,,2013-11-15 07:42:00,
2013-11-15 02:52:00,53.0,53.0,-100.00,ESE,113,0.0,0.0,100,0.00,,,0.00,0.000000,,2013-11-15 07:52:00,
2013-11-15 03:01:00,53.0,53.0,-100.00,ESE,113,0.0,0.0,100,0.00,,,0.00,0.000000,,2013-11-15 08:01:00,
2013-11-15 03:11:00,53.0,53.0,-100.00,ESE,113,0.0,0.0,100,0.00,,,0.00,0.000000,,2013-11-15 08:11:00,
2013-11-15 03:42:00,57.0,57.0,-100.00,North,4,0.0,3.0,100,0.00,,,0.00,0.000000,,2013-11-15 08:42:00,
2013-11-15 03:52:00,57.0,57.0,-100.00,North,4,0.0,3.0,100,0.00,,,0.00,0.000000,,2013-11-15 08:52:00,
2013-11-15 04:02:00,57.0,57.0,-100.00,North,4,0.0,3.0,100,0.00,,,0.00,0.000000,,2013-11-15 09:02:00,
2013-11-15 04:12:00,57.0,57.0,-100.00,North,4,0.0,3.0,100,0.00,,,0.00,0.000000,,2013-11-15 09:12:00,
2013-11-15 04:43:00,58.0,57.0,-100.00,ENE,57,0.0,4.0,97,0.00,,,0.00,0.000000,,2013-11-15 09:43:00,
2013-11-15 04:54:00,58.0,57.0,-100.00,ENE,57,0.0,4.0,97,0.00,,,0.00,0.000000,,2013-11-15 09:54:00,
2013-11-15 05:03:00,58.0,57.0,-100.00,ENE,57,0.0,4.0,97,0.00,,,0.00,0.000000,,2013-11-15 10:03:00,
2013-11-15 05:12:00,58.0,57.0,-100.00,ENE,57,0.0,4.0,97,0.00,,,0.00,0.000000,,2013-11-15 10:12:00,
2013-11-15 05:43:00,58.0,58.0,-100.00,NNE,12,1.0,3.0,100,0.00,,,0.00,0.000000,,2013-11-15 10:43:00,
2013-11-15 05:52:00,58.0,58.0,-100.00,NNE,12,1.0,3.0,100,0.00,,,0.00,0.000000,,2013-11-15 10:52:00,
2013-11-15 06:02:00,58.0,58.0,-100.00,NNE,12,1.0,3.0,100,0.00,,,0.00,0.000000,,2013-11-15 11:02:00,
2013-11-15 06:12:00,58.0,58.0,-100.00,NNE,12,1.0,3.0,100,0.00,,,0.00,0.000000,,2013-11-15 11:12:00,
2013-11-15 06:42:00,58.0,57.0,-100.00,SE,126,0.0,4.0,98,0.00,,,0.00,0.000000,,2013-11-15 11:42:00,
2013-11-15 06:52:00,58.0,57.0,-100.00,SE,126,0.0,4.0,98,0.00,,,0.00,0.000000,,2013-11-15 11:52:00,
2013-11-15 07:02:00,58.0,57.0,-100.00,SE,126,0.0,4.0,98,0.00,,,0.00,0.000000,,2013-11-15 12:02:00,
2013-11-15 07:11:00,58.0,57.0,-100.00,SE,126,0.0,4.0,98,0.00,,,0.00,0.000000,,2013-11-15 12:11:00,
2013-11-15 07:42:00,60.0,59.0,-100.00,SW,218,0.0,5.0,97,0.00,,,0.00,1.000000,,2013-11-15 12:42:00,
2013-11-15 07:52:00,60.0,59.0,-100.00,SW,218,0.0,5.0,97,0.00,,,0.00,1.000000,,2013-11-15 12:52:00,
2013-11-15 08:01:00,60.0,59.0,-100.00,SW,218,0.0,5.0,97,0.00,,,0.00,1.000000,,2013-11-15 13:01:00,
2013-11-15 08:11:00,60.0,59.0,-100.00,SW,218,0.0,5.0,97,0.00,,,0.00,1.000000,,2013-11-15 13:11:00,
2013-11-15 08:42:00,62.0,60.0,-100.00,NW,305,1.0,4.0,93,0.00,,,0.00,21.000000,,2013-11-15 13:42:00,
2013-11-15 08:52:00,62.0,60.0,-100.00,NW,305,1.0,4.0,93,0.00,,,0.00,21.000000,,2013-11-15 13:52:00,
2013-11-15 09:02:00,62.0,60.0,-100.00,NW,305,1.0,4.0,93,0.00,,,0.00,21.000000,,2013-11-15 14:02:00,
2013-11-15 09:11:00,62.0,60.0,-100.00,NW,305,1.0,4.0,93,0.00,,,0.00,21.000000,,2013-11-15 14:11:00,
2013-11-15 09:42:00,63.0,60.0,-100.00,NNE,22,1.0,4.0,91,0.00,,,0.00,43.000000,,2013-11-15 14:42:00,
2013-11-15 09:52:00,63.0,60.0,-100.00,NNE,22,1.0,4.0,91,0.00,,,0.00,43.000000,,2013-11-15 14:52:00,
2013-11-15 10:02:00,63.0,60.0,-100.00,NNE,22,1.0,4.0,91,0.00,,,0.00,43.000000,,2013-11-15 15:02:00,
2013-11-15 10:12:00,63.0,60.0,-100.00,NNE,22,1.0,4.0,91,0.00,,,0.00,43.000000,,2013-11-15 15:12:00,
2013-11-15 10:43:00,64.0,61.0,-100.00,East,101,1.0,5.0,91,0.00,,,0.00,58.000000,,2013-11-15 15:43:00,
2013-11-15 10:53:00,64.0,61.0,-100.00,East,101,1.0,5.0,91,0.00,,,0.00,58.000000,,2013-11-15 15:53:00,
2013-11-15 11:03:00,64.0,61.0,-100.00,East,101,1.0,5.0,91,0.00,,,0.00,58.000000,,2013-11-15 16:03:00,
2013-11-15 11:13:00,64.0,61.0,-100.00,East,101,1.0,5.0,91,0.00,,,0.00,58.000000,,2013-11-15 16:13:00,
2013-11-15 11:43:00,65.0,64.0,-100.00,NNE,31,3.0,5.0,95,0.02,,,0.02,95.000000,,2013-11-15 16:43:00,
2013-11-15 11:53:00,65.0,64.0,-100.00,NNE,31,3.0,5.0,95,0.02,,,0.02,95.000000,,2013-11-15 16:53:00,
2013-11-15 12:03:00,65.0,64.0,-100.00,NNE,31,3.0,5.0,95,0.02,,,0.02,95.000000,,2013-11-15 17:03:00,
2013-11-15 12:12:00,65.0,64.0,-100.00,NNE,31,3.0,5.0,95,0.02,,,0.02,95.000000,,2013-11-15 17:12:00,
2013-11-15 12:42:00,68.0,64.0,-100.00,NE,54,4.0,6.0,87,0.00,,,0.02,202.000000,,2013-11-15 17:42:00,
2013-11-15 12:52:00,68.0,64.0,-100.00,NE,54,4.0,6.0,87,0.00,,,0.02,202.000000,,2013-11-15 17:52:00,
2013-11-15 13:02:00,68.0,64.0,-100.00,NE,54,4.0,6.0,87,0.00,,,0.02,202.000000,,2013-11-15 18:02:00,
2013-11-15 13:12:00,68.0,64.0,-100.00,NE,54,4.0,6.0,87,0.00,,,0.02,202.000000,,2013-11-15 18:12:00,
2013-11-15 13:42:00,69.0,63.0,-100.00,ENE,61,5.0,7.0,81,0.00,,,0.02,150.000000,,2013-11-15 18:42:00,
2013-11-15 13:52:00,69.0,63.0,-100.00,ENE,61,5.0,7.0,81,0.00,,,0.02,150.000000,,2013-11-15 18:52:00,
2013-11-15 14:02:00,69.0,63.0,-100.00,ENE,61,5.0,7.0,81,0.00,,,0.02,150.000000,,2013-11-15 19:02:00,
2013-11-15 14:12:00,69.0,63.0,-100.00,ENE,61,5.0,7.0,81,0.00,,,0.02,150.000000,,2013-11-15 19:12:00,
2013-11-15 14:42:00,69.0,63.0,-100.00,NE,48,6.0,9.0,82,0.00,,,0.02,134.000000,,2013-11-15 19:42:00,
2013-11-15 14:52:00,69.0,63.0,-100.00,NE,48,6.0,9.0,82,0.00,,,0.02,134.000000,,2013-11-15 19:52:00,
2013-11-15 15:02:00,69.0,63.0,-100.00,NE,48,6.0,9.0,82,0.00,,,0.02,134.000000,,2013-11-15 20:02:00,
2013-11-15 15:12:00,69.0,63.0,-100.00,NE,48,6.0,9.0,82,0.00,,,0.02,134.000000,,2013-11-15 20:12:00,
2013-11-15 15:42:00,69.0,64.0,-100.00,NNE,15,3.0,9.0,84,0.00,,,0.02,68.000000,,2013-11-15 20:42:00,
2013-11-15 15:52:00,69.0,64.0,-100.00,NNE,15,3.0,9.0,84,0.00,,,0.02,68.000000,,2013-11-15 20:52:00,
2013-11-15 16:02:00,69.0,64.0,-100.00,NNE,15,3.0,9.0,84,0.00,,,0.02,68.000000,,2013-11-15 21:02:00,
2013-11-15 16:12:00,69.0,64.0,-100.00,NNE,15,3.0,9.0,84,0.00,,,0.02,68.000000,,2013-11-15 21:12:00,
2013-11-15 16:43:00,67.0,65.0,-100.00,NE,52,3.0,6.0,93,0.00,,,0.02,38.000000,,2013-11-15 21:43:00,
2013-11-15 16:55:00,67.0,65.0,-100.00,NE,52,3.0,6.0,93,0.00,,,0.02,38.000000,,2013-11-15 21:55:00,
2013-11-15 17:03:00,67.0,65.0,-100.00,NE,52,3.0,6.0,93,0.00,,,0.02,38.000000,,2013-11-15 22:03:00,
2013-11-15 17:14:00,67.0,65.0,-100.00,NE,52,3.0,6.0,93,0.00,,,0.02,38.000000,,2013-11-15 22:14:00,
2013-11-15 17:43:00,66.0,65.0,-100.00,NE,34,3.0,6.0,96,0.01,,,0.03,18.000000,,2013-11-15 22:43:00,
2013-11-15 17:53:00,66.0,65.0,-100.00,NE,34,3.0,6.0,96,0.01,,,0.03,18.000000,,2013-11-15 22:53:00,
2013-11-15 18:03:00,66.0,65.0,-100.00,NE,34,3.0,6.0,96,0.01,,,0.03,18.000000,,2013-11-15 23:03:00,
2013-11-15 18:12:00,66.0,65.0,-100.00,NE,34,3.0,6.0,96,0.01,,,0.03,18.000000,,2013-11-15 23:12:00,
2013-11-15 18:43:00,65.0,65.0,-100.00,ENE,60,3.0,5.0,99,0.01,,,0.04,1.000000,,2013-11-15 23:43:00,
2013-11-15 18:52:00,65.0,65.0,-100.00,ENE,60,3.0,5.0,99,0.01,,,0.04,1.000000,,2013-11-15 23:52:00,
2013-11-15 19:03:00,65.0,65.0,-100.00,ENE,60,3.0,5.0,99,0.01,,,0.04,1.000000,,2013-11-16 00:03:00,
2013-11-15 19:11:00,65.0,65.0,-100.00,ENE,60,3.0,5.0,99,0.01,,,0.04,1.000000,,2013-11-16 00:11:00,
2013-11-15 19:42:00,64.0,64.0,-100.00,NE,43,3.0,5.0,100,0.02,,,0.06,0.000000,,2013-11-16 00:42:00,
2013-11-15 19:52:00,64.0,64.0,-100.00,NE,43,3.0,5.0,100,0.02,,,0.06,0.000000,,2013-11-16 00:52:00,
2013-11-15 20:02:00,64.0,64.0,-100.00,NE,43,3.0,5.0,100,0.02,,,0.06,0.000000,,2013-11-16 01:02:00,
2013-11-15 20:12:00,64.0,64.0,-100.00,NE,43,3.0,5.0,100,0.02,,,0.06,0.000000,,2013-11-16 01:12:00,
2013-11-15 20:42:00,65.0,65.0,-100.00,ENE,59,1.0,4.0,100,0.04,,,0.10,0.000000,,2013-11-16 01:42:00,
2013-11-15 20:52:00,65.0,65.0,-100.00,ENE,59,1.0,4.0,100,0.04,,,0.10,0.000000,,2013-11-16 01:52:00,
2013-11-15 21:02:00,65.0,65.0,-100.00,ENE,59,1.0,4.0,100,0.04,,,0.10,0.000000,,2013-11-16 02:02:00,
2013-11-15 21:12:00,65.0,65.0,-100.00,ENE,59,1.0,4.0,100,0.04,,,0.10,0.000000,,2013-11-16 02:12:00,
2013-11-15 21:42:00,64.0,64.0,-100.00,South,176,0.0,2.0,100,0.02,,,-99.99,0.000000,,2013-11-16 02:42:00,
2013-11-15 21:52:00,64.0,64.0,-100.00,South,176,0.0,2.0,100,0.02,,,-99.99,0.000000,,2013-11-16 02:52:00,
2013-11-15 22:02:00,64.0,64.0,-100.00,South,176,0.0,2.0,100,0.02,,,-99.99,0.000000,,2013-11-16 03:02:00,
2013-11-15 22:11:00,64.0,64.0,-100.00,South,176,0.0,2.0,100,0.02,,,-99.99,0.000000,,2013-11-16 03:11:00,
2013-11-15 22:44:00,65.0,65.0,-100.00,South,184,4.0,8.0,100,0.01,,,0.13,0.000000,,2013-11-16 03:44:00,
2013-11-15 22:55:00,65.0,65.0,-100.00,South,184,4.0,8.0,100,0.01,,,0.13,0.000000,,2013-11-16 03:55:00,
2013-11-15 23:04:00,65.0,65.0,-100.00,South,184,4.0,8.0,100,0.01,,,0.13,0.000000,,2013-11-16 04:04:00,
2013-11-15 23:14:00,65.0,65.0,-100.00,South,184,4.0,8.0,100,0.01,,,0.13,0.000000,,2013-11-16 04:14:00,
2013-11-15 23:43:00,66.0,65.0,-100.00,SSW,213,2.0,8.0,97,0.02,,,0.15,0.000000,,2013-11-16 04:43:00,
2013-11-15 23:53:00,66.0,65.0,-100.00,SSW,213,2.0,8.0,97,0.02,,,0.15,0.000000,,2013-11-16 04:53:00,